N505ZG KCRQ-KSAN

Flight info

Callsign N505ZG
Flight time 0h 12m
Altitude VFR/055
Route
Aircraft C208/L-VGD/C

Departure

Time 2026-05-06 23:08
Airport McClellan-Palomar Airport (KCRQ)

Arrival

Time 2026-05-06 23:21
Airport San Diego International Airport (KSAN)
Time Latitude Longitude Altitude Speed Heading
2026-05-06 23:04 33.12734 -117.27863 330 ft 0 kts 259°
2026-05-06 23:05 33.12733 -117.27872 328 ft 5 kts 258°
2026-05-06 23:06 33.12760 -117.27868 330 ft 12 kts 60°
2026-05-06 23:06 33.12790 -117.27715 331 ft 19 kts 79°
2026-05-06 23:06 33.12811 -117.27590 328 ft 16 kts 78°
2026-05-06 23:06 33.12839 -117.27413 328 ft 24 kts 77°
2026-05-06 23:07 33.12857 -117.27303 331 ft 7 kts 80°
2026-05-06 23:07 33.12869 -117.27268 330 ft 2 kts 54°
2026-05-06 23:07 33.12935 -117.27246 333 ft 12 kts 321°
2026-05-06 23:07 33.12933 -117.27344 334 ft 18 kts 261°
2026-05-06 23:08 33.12871 -117.27714 337 ft 74 kts 259°
2026-05-06 23:08 33.12754 -117.28329 572 ft 82 kts 258°
2026-05-06 23:08 33.12553 -117.29070 781 ft 106 kts 237°
2026-05-06 23:08 33.11815 -117.29191 1099 ft 123 kts 166°
2026-05-06 23:09 33.11050 -117.28672 1445 ft 130 kts 149°
2026-05-06 23:09 33.10293 -117.28114 1858 ft 124 kts 150°
2026-05-06 23:09 33.09507 -117.27593 2115 ft 130 kts 156°
2026-05-06 23:09 33.08678 -117.27117 2377 ft 131 kts 157°
2026-05-06 23:10 33.07835 -117.26690 2545 ft 137 kts 155°
2026-05-06 23:10 33.06979 -117.26105 2626 ft 143 kts 162°
2026-05-06 23:10 33.06044 -117.26138 2965 ft 130 kts 183°
2026-05-06 23:10 33.05186 -117.25920 3333 ft 123 kts 163°
2026-05-06 23:11 33.04378 -117.25699 3684 ft 117 kts 168°
2026-05-06 23:11 33.03587 -117.25512 4042 ft 113 kts 168°
2026-05-06 23:11 33.02824 -117.25338 4385 ft 112 kts 167°
2026-05-06 23:11 33.02065 -117.25169 4727 ft 111 kts 168°
2026-05-06 23:12 33.01315 -117.25006 5058 ft 110 kts 167°
2026-05-06 23:12 33.00560 -117.24840 5390 ft 110 kts 167°
2026-05-06 23:12 32.99754 -117.24662 5504 ft 130 kts 167°
2026-05-06 23:12 32.98784 -117.24456 5520 ft 151 kts 168°
2026-05-06 23:13 32.97694 -117.24222 5525 ft 163 kts 168°
2026-05-06 23:13 32.96551 -117.23975 5523 ft 169 kts 168°
2026-05-06 23:13 32.95393 -117.23725 5519 ft 173 kts 168°
2026-05-06 23:13 32.94205 -117.23463 5519 ft 174 kts 168°
2026-05-06 23:14 32.93011 -117.23203 5519 ft 175 kts 168°
2026-05-06 23:14 32.91804 -117.22942 5515 ft 175 kts 168°
2026-05-06 23:14 32.90611 -117.22685 5520 ft 175 kts 168°
2026-05-06 23:14 32.89410 -117.22421 5515 ft 176 kts 168°
2026-05-06 23:15 32.88201 -117.22162 5519 ft 176 kts 168°
2026-05-06 23:15 32.86988 -117.21902 5515 ft 176 kts 168°
2026-05-06 23:15 32.85794 -117.21640 5514 ft 176 kts 168°
2026-05-06 23:15 32.84597 -117.21284 5486 ft 175 kts 149°
2026-05-06 23:16 32.83638 -117.20512 5246 ft 159 kts 143°
2026-05-06 23:16 32.82755 -117.19794 4937 ft 149 kts 146°
2026-05-06 23:16 32.81871 -117.19144 4524 ft 149 kts 147°
2026-05-06 23:16 32.80998 -117.18488 4113 ft 148 kts 146°
2026-05-06 23:17 32.80154 -117.17812 3794 ft 144 kts 143°
2026-05-06 23:17 32.79362 -117.17141 3597 ft 134 kts 144°
2026-05-06 23:17 32.78596 -117.16558 3336 ft 134 kts 147°
2026-05-06 23:17 32.77800 -117.15937 2936 ft 136 kts 146°
2026-05-06 23:18 32.77013 -117.15305 2561 ft 132 kts 145°
2026-05-06 23:18 32.76239 -117.14810 2240 ft 122 kts 172°
2026-05-06 23:18 32.75426 -117.14704 2023 ft 115 kts 179°
2026-05-06 23:18 32.74616 -117.14634 1755 ft 120 kts 185°
2026-05-06 23:19 32.73797 -117.14782 1460 ft 112 kts 207°
2026-05-06 23:19 32.73168 -117.15194 1047 ft 101 kts 218°
2026-05-06 23:19 32.72819 -117.15771 610 ft 75 kts 261°
2026-05-06 23:19 32.72788 -117.16347 432 ft 74 kts 276°
2026-05-06 23:20 32.72871 -117.16941 289 ft 71 kts 286°
2026-05-06 23:20 32.72978 -117.17459 122 ft 63 kts 284°
2026-05-06 23:20 32.73118 -117.17988 32 ft 66 kts 284°
2026-05-06 23:20 32.73234 -117.18477 24 ft 58 kts 287°
2026-05-06 23:21 32.73328 -117.18789 18 ft 21 kts 306°
2026-05-06 23:21 32.73395 -117.18808 17 ft 5 kts 19°
2026-05-06 23:21 32.73402 -117.18804 17 ft 0 kts 24°
2026-05-06 23:21 32.73418 -117.18783 17 ft 13 kts 69°
2026-05-06 23:22 32.73389 -117.18627 19 ft 20 kts 106°
2026-05-06 23:22 32.73363 -117.18523 23 ft 11 kts 105°
2026-05-06 23:22 32.73325 -117.18361 20 ft 27 kts 107°
2026-05-06 23:22 32.73281 -117.18187 19 ft 21 kts 106°
2026-05-06 23:23 32.73252 -117.17995 19 ft 24 kts 56°
2026-05-06 23:23 32.73369 -117.17939 19 ft 12 kts 27°
2026-05-06 23:23 32.73401 -117.17895 19 ft 8 kts 102°
2026-05-06 23:23 32.73375 -117.17854 19 ft 1 kts 152°